Regional Weather Roundup
Issued by NWS

Home | Current Version | Previous Version | Text Only | Print | Product List | Glossary On
Versions: 1 2 3 4 5 6 7 8 9 10 11 12 13 14 15 16 17 18 19 20 21 22 23 24 25 26 27 28 29 30 31 32 33 34 35 36 37 38 39 40 41 42 43 44 45 46 47 48 49 50
000
ASUS44 KBMX 022210
RWRAL

ALABAMA REGIONAL WEATHER ROUNDUP
NATIONAL WEATHER SERVICE BIRMINGHAM AL
500 PM CDT SUN AUG 02 2015

NOTE: "FAIR" INDICATES FEW OR NO CLOUDS BELOW 12,000 FEET
WITH NO SIGNIFICANT WEATHER AND/OR OBSTRUCTIONS TO VISIBILITY.

THE REMARK "TC" DENOTES TEMPERATURE IN DEGREES CELSIUS.

ALZ001>011-014-016>018-020-022300-
NORTH ALABAMA

CITY           SKY/WX    TMP DP  RH WIND       PRES   REMARKS
MUSCLE SHOALS  MOSUNNY   93  55  27 VRB3      29.93S HX  91
HUNTSVILLE     PTSUNNY   93  56  28 N9        29.91S HX  91
DECATUR        MOSUNNY   91  57  31 N5        29.92S
HALEYVILLE     FAIR      92  55  28 CALM      29.96S HX  90
GADSDEN        SUNNY     95  52  23 NW7       29.87S HX  92
$$

ALZ012-013-022-023-030>036-040>044-022300-
WEST CENTRAL ALABAMA

CITY           SKY/WX    TMP DP  RH WIND       PRES   REMARKS
TUSCALOOSA     MOSUNNY   97  60  29 NE7       29.87S HX  97
$$

ALZ015-024>027-033>036-040>044-022300-
CENTRAL ALABAMA

CITY           SKY/WX    TMP DP  RH WIND       PRES   REMARKS
BIRMINGHAM     MOSUNNY   94  55  26 NE7G17    29.91S HX  92
MONTGOMERY     SUNNY     97  61  30 NW7       29.86S HX  97
SHELBY CO ARPT SUNNY     93  60  33 VRB6      29.89S HX  93
MAXWELL AFB    SUNNY     96  60  30 VRB3      29.85S HX  96
GREENVILLE     PTSUNNY   96  62  32 NE9       29.86S HX  97
$$

ALZ019-021-028-029-037-038-045>048-022300-
EAST CENTRAL ALABAMA

CITY           SKY/WX    TMP DP  RH WIND       PRES   REMARKS
ANNISTON       SUNNY     93  57  29 CALM      29.88S HX  91
ALEXANDER CITY SUNNY     94  51  22 N7        29.89S HX  91
AUBURN         MOSUNNY   90  66  45 CALM      29.90S HX  92
$$

ALZ051>064-022300-
SOUTHWEST ALABAMA

CITY           SKY/WX    TMP DP  RH WIND       PRES   REMARKS
MOBILE         MOSUNNY   95  66  38 N5        29.86S HX  98
BROOKLEY FIELD MOSUNNY   92  76  59 SE10      29.86S HX 104
EVERGREEN      MOSUNNY   95  64  35 E6        29.85F HX  97
$$

ALZ049-050-065>069-022300-
SOUTHEAST ALABAMA

CITY           SKY/WX    TMP DP  RH WIND       PRES   REMARKS
DOTHAN         MOSUNNY   92  71  50 VRB7      29.88F HX  98
OZARK          SUNNY     94  71  47 NE8       29.84F HX 100
TROY           MOSUNNY   94  70  45 SW5       29.86F HX 100
EUFAULA        FAIR      94  74  52 E7        29.84F HX 104
$$


USA.gov is the U.S. government's official web portal to all federal, state and local government web resources and services.